{"data":{"norad_id":62380,"epoch":"2026-09-21T00:38:11.295168Z","epoch_age_seconds":266450,"freshness":"STALE","line1":"1 62380U 24247D   26264.02651962  .00005833  00000+0  19291-3 0  9992","line2":"2 62380  44.9933 123.0097 0002312 139.7902 220.3154 15.32329672 97692","mean_motion":15.32329672,"eccentricity":0.0002312,"inclination_deg":44.9933,"raan_deg":123.0097,"arg_perigee_deg":139.7902,"mean_anomaly_deg":220.3154,"bstar":0.00019291,"rev_number":9769,"period_min":93.974555626826,"perigee_km":467.28059200673,"apogee_km":470.44664509274,"semimajor_km":6847.0006185497,"source":"CELESTRAK","updated_at":"2026-09-23T09:00:21.391359Z"}}